Regional Weather Roundup
Issued by NWS

Home | Current Version | Previous Version | Graphics & Text | Print | Product List | Glossary On
Versions: 1 2 3 4 5 6 7 8 9 10 11 12 13 14 15 16 17 18 19 20 21 22 23 24 25 26 27 28 29 30 31 32 33 34 35 36 37 38 39 40 41 42 43 44 45 46 47 48 49 50
000
ASUS43 KDTX 161310
RWRMI
MICHIGAN HOURLY REGIONAL WEATHER ROUNDUP
NATIONAL WEATHER SERVICE DETROIT/PONTIAC MI
900 AM EDT WED APR 16 2014

NOTE: "FAIR" INDICATES FEW OR NO CLOUDS BELOW 12,000 FEET WITH NO
SIGNIFICANT WEATHER AND/OR OBSTRUCTION TO VISIBILITY.

MIZ047>049-052>055-059>063-066>070-074>076-081>083-161400-
SOUTHEAST LOWER MICHIGAN

CITY           SKY/WX    TMP DP  RH WIND       PRES   REMARKS
ADRIAN         SUNNY     29  17  61 S5        30.42R
ALMA           SUNNY     29  20  68 S3        30.40R
ANN ARBOR      SUNNY     27  23  85 CALM      30.41R
BAD AXE        CLOUDY    29  21  70 SW3       30.41R
DETROIT CITY   SUNNY     32  14  47 S7        30.44R
DETROIT        MOSUNNY   29  17  61 CALM      30.44R
FLINT          SUNNY     30  18  60 S6        30.42R
GROSSE ILE     SUNNY     30  19  64 CALM      30.42R
HILLSDALE      SUNNY     29  17  59 S6        30.37R
HOWELL         SUNNY     27  19  70 SE3       30.40R

CITY           SKY/WX    TMP DP  RH WIND       PRES   REMARKS
JACKSON        SUNNY     29  15  56 S8        30.39R
LAMBERTVILLE   SUNNY     32  18  55 CALM      30.43R
LANSING        SUNNY     29  15  56 S5        30.40R
LAPEER         NOT AVBL
MASON          SUNNY     28  17  62 S3        30.39R
MONROE         SUNNY     28  19  69 CALM      30.41S
MT. CLEMENS    MOSUNNY   31  16  53 SW8       30.42R
PONTIAC        MOSUNNY   27  17  66 CALM      30.40R
PORT HOPE        N/A     31  20  63 NW5       30.39R
PORT HURON     SUNNY     28  19  69 SW6       30.44R
TRI CITIES     SUNNY     30  18  60 SW7       30.41R
YPSILANTI      SUNNY     31  21  66 CALM      30.43R
$$
MIZ043>046-050>051-056>058-064>065-071>073-077>080-161400-
SOUTHWEST LOWER MICHIGAN

CITY           SKY/WX    TMP DP  RH WIND       PRES   REMARKS
BATTLE CREEK   SUNNY     30  16  56 S9        30.38R
BENTON HARBOR  CLOUDY    30  17  58 S10       30.36R
BIG RAPIDS     SUNNY     27  18  68 S5        30.35R
COLDWATER      SUNNY     30  16  56 S8        30.38R
HOLLAND        CLOUDY    31  18  58 SE13      30.37R
GRAND RAPIDS   PTSUNNY   30  18  60 S8        30.38R
KALAMAZOO      MOSUNNY   31  15  52 S9        30.38R
MARSHALL       SUNNY     28  16  58 S6        30.38R
MUSKEGON       CLOUDY    31  17  56 SE10      30.36R
$$
MIZ016>042-161400-
NORTHERN LOWER MICHIGAN

CITY           SKY/WX    TMP DP  RH WIND       PRES   REMARKS
ALPENA         SUNNY     23  16  74 S5        30.39R
BEAVER ISLAND  SUNNY     22  21  95 SE6       30.33R
BELLAIRE       SUNNY     27  21  80 S5        30.35R
CADILLAC       SUNNY     26  17  68 S7        30.30R
CHARLEVOIX     SUNNY     21  20  96 E5        30.37R
FRANKFORT      SUNNY     29  22  76 SE3       30.33R
GAYLORD        SUNNY     22  19  89 S6        30.31R
GRAYLING       SUNNY     21  17  84 CALM      30.33R
HARBOR SPRINGS SUNNY     20  17  86 NE3       30.34R
HOUGHTON LAKE  SUNNY     25  18  74 VRB3      30.34R
MANISTEE       SUNNY     28  16  59 S8        30.34R
OSCODA         SUNNY     27  20  73 NW5       30.40R
PELLSTON       SUNNY     16  14  92 CALM      30.36R
TRAVERSE CITY  SUNNY     28  20  71 S3        30.34R
$$
MIZ007>008-015-161400-
EASTERN UPPER MICHIGAN

CITY           SKY/WX    TMP DP  RH WIND       PRES   REMARKS
KINROSS        SUNNY     21  12  68 S5        30.34R
MACKINAC ISLAN SUNNY     22  14  72 S8        30.34R
NEWBERRY       SUNNY     18   9  67 S7        30.31R
S. S. MARIE    SUNNY     17  11  77 CALM      30.34R
$$
MIZ004>006-011>014-085-161400-
CENTRAL UPPER MICHIGAN

CITY           SKY/WX    TMP DP  RH WIND       PRES   REMARKS
MANISTIQUE     SUNNY     24  18  75 SE7       30.32R
ESCANABA       SUNNY     21  19  93 E3        30.30R
MENOMINEE      CLOUDY    25  23  93 CALM      30.29R
SAWYER-GWINN   CLOUDY     7   3  85 CALM      30.25R
$$
MIZ001>003-009>011-084-161400-
WESTERN UPPER MICHIGAN

CITY           SKY/WX    TMP DP  RH WIND       PRES   REMARKS
IRON MOUNTAIN  CLOUDY    15  12  88 CALM      30.24R
HOUGHTON       PTSUNNY   20   7  57 S6        30.23R
COPPER HARBOR    N/A     25   5  42 SW3       30.25R
IRONWOOD       CLOUDY    25   9  50 E6        30.15R
$$

ABBREVIATIONS USED IN REMARKS
   TC - TEMPERATURE IN CELSIUS
  WCI - WIND CHILL INDEX
   HX - HEAT INDEX
  VSB - VISIBILITY




USA.gov is the U.S. government's official web portal to all federal, state and local government web resources and services.